Location: Skalnate Pleso
(49.1889°N, 20.2450°E)
Time: 03:12:03
(UTC+01:00)

Cosmos 1605 Rocket - Pass Details

Date: 19 November 2019
Orbit: 944 x 1006 km, 82.9° (Epoch: 14 December)

Event Time Altitude Azimuth Distance (km) Brightness Sun altitude
Exits shadow 03:46:07 64° 9° (N) 1,057 4.1 -30.5°
Drops below altitude 10° 03:51:12 10° 10° (N) 2,684 6.4 -29.6°
Sets 03:53:41 0° 10° (N) 3,629 7.2 -29.2°
